Regional Weather Roundup
Issued by NWS

Home | Current Version | Previous Version | Text Only | Print | Product List | Glossary Off
Versions: 1 2 3 4 5 6 7 8 9 10 11 12 13 14 15 16 17 18 19 20 21 22 23 24 25 26 27 28 29 30 31 32 33 34 35 36 37 38 39 40 41 42 43 44 45 46 47 48 49 50

654
ASUS43 KFSD 090610
RWRSD

WEATHER ROUNDUP FOR SOUTH DAKOTA
NATIONAL WEATHER SERVICE SIOUX FALLS SD
1200 AM CST TUE FEB 09 2016

NOTE: "FAIR" INDICATES FEW OR NO CLOUDS BELOW 12,000 FEET WITH NO
SIGNIFICANT WEATHER AND/OR OBSTRUCTIONS TO VISIBILITY.


SDZ001>005-009-010-012>017-090700-
NORTHWEST AND NORTH CENTRAL SOUTH DAKOTA

CITY           SKY/WX    TMP DP  RH WIND       PRES   REMARKS
BUFFALO          N/A     29  13  51 NW8       30.17R WCI  21
FAITH            N/A     30  14  51 N9        30.23S WCI  22
MOBRIDGE       CLEAR     23  15  71 N9        30.21S WCI  13
$$

SDZ012>016-024>037-041>051-057-063-072>074-090700-
SOUTHWEST AND SOUTH CENTRAL SOUTH DAKOTA

CITY           SKY/WX    TMP DP  RH WIND       PRES   REMARKS
RAPID CTY ARPT CLOUDY    32  19  58 N3        30.22F
PIERRE         PTCLDY    25  18  74 N13       30.24R WCI  14
CUSTER         CLEAR     36  22  56 NW12G21   30.18S
ELLSWORTH AFB  CLOUDY    33  18  53 CALM      30.21S
PHILIP         CLOUDY    33  18  53 N10       30.24S WCI  25
PINE RIDGE     CLOUDY    31  20  63 CALM      30.22F
SPEARFISH      CLOUDY    41  25  52 W14G21    30.23S
WINNER         MOCLDY    28  19  69 NW8       30.21R WCI  20
$$

SDZ004>011-016>023-039-040-090700-
NORTHEAST SOUTH DAKOTA

CITY           SKY/WX    TMP DP  RH WIND       PRES   REMARKS
ABERDEEN       CLEAR     16   9  74 N13       30.24R WCI   2
WATERTOWN      CLOUDY     9   3  77 N24       30.13S WCI -12
BROOKINGS      FLURRIES   9   4  80 N22G29    30.11S WCI -11
SISSETON         N/A      7   3  84 N17       30.19S WCI -12
$$

SDZ017-020-022-023-036>040-048>070-090700-
SOUTHEAST SOUTH DAKOTA

CITY           SKY/WX    TMP DP  RH WIND       PRES   REMARKS
SIOUX FALLS    CLEAR     14   6  70 N26G40    30.12R WCI  -6
HURON          CLEAR     17  11  77 N18G26    30.21R WCI   1
CHAMBERLAIN    MOCLDY    26  16  67 N16       30.22R WCI  13
MITCHELL       CLEAR     20  13  74 N16       30.22R WCI   6
YANKTON        CLEAR     21  12  68 NW22      30.16R WCI   5
$$

ABBREVIATIONS USED IN REMARKS
   TC - TEMPERATURE IN CELSIUS
  WCI - WIND CHILL INDEX
   HX - HEAT INDEX
  VSB - VISIBILITY





USA.gov is the U.S. government's official web portal to all federal, state and local government web resources and services.